Regional Weather Roundup
Issued by NWS

Home | Current Version | Previous Version | Graphics & Text | Print | Product List | Glossary On
Versions: 1 2 3 4 5 6 7 8 9 10 11 12 13 14 15 16 17 18 19 20 21 22 23 24 25 26 27 28 29 30 31 32 33 34 35 36 37 38 39 40 41 42 43 44 45 46 47 48 49 50
000
ASUS43 KFSD 011210
RWRSD

WEATHER ROUNDUP FOR SOUTH DAKOTA
NATIONAL WEATHER SERVICE SIOUX FALLS SD
700 AM CDT WED JUL 01 2015

NOTE: "FAIR" INDICATES FEW OR NO CLOUDS BELOW 12,000 FEET WITH NO
SIGNIFICANT WEATHER AND/OR OBSTRUCTIONS TO VISIBILITY.


SDZ001>005-009-010-012>017-011300-
NORTHWEST AND NORTH CENTRAL SOUTH DAKOTA

CITY           SKY/WX    TMP DP  RH WIND       PRES   REMARKS
BUFFALO          N/A     62  58  86 NW13      29.88R
FAITH            N/A     60  58  92 NE5       29.90S
MOBRIDGE       CLOUDY    66  65  96 CALM      29.88R FOG
$$

SDZ012>016-024>037-041>051-057-063-072>074-011300-
SOUTHWEST AND SOUTH CENTRAL SOUTH DAKOTA

CITY           SKY/WX    TMP DP  RH WIND       PRES   REMARKS
RAPID CTY ARPT CLEAR     66  58  75 NW9       29.94R
PIERRE         CLEAR     63  63 100 E5        29.86R FOG
CUSTER         PTCLDY    60  50  69 NW6       30.12R
ELLSWORTH AFB  PTCLDY    65  58  77 W10       29.94R
PHILIP         CLEAR     64  62  93 NE3       29.87R
PINE RIDGE     CLEAR     62  59  90 W5        29.96R
SPEARFISH      FAIR      66  54  63 W7        30.03R
WINNER         FAIR      65  60  84 E6        29.88F
$$

SDZ004>011-016>023-039-040-011300-
NORTHEAST SOUTH DAKOTA

CITY           SKY/WX    TMP DP  RH WIND       PRES   REMARKS
ABERDEEN       CLOUDY    66  64  93 NE5       29.90R FOG
WATERTOWN      CLOUDY    63  60  90 SE5       29.92R FOG
BROOKINGS      CLOUDY    63  59  88 NE5       29.95R
SISSETON         N/A     63  62  97 SW5       29.93R
$$

SDZ017-020-022-023-036>040-048>070-011300-
SOUTHEAST SOUTH DAKOTA

CITY           SKY/WX    TMP DP  RH WIND       PRES   REMARKS
SIOUX FALLS    CLOUDY    64  61  90 E7        29.90R FOG
HURON          CLOUDY    65  64  97 SE8       29.88R FOG
CHAMBERLAIN    MOCLDY    64  62  94 E5        29.88S
MITCHELL       RAIN      66  65  96 E8        29.89R FOG
YANKTON        CLOUDY    64  63  94 NE9       29.85F
$$

ABBREVIATIONS USED IN REMARKS
   TC - TEMPERATURE IN CELSIUS
  WCI - WIND CHILL INDEX
   HX - HEAT INDEX
  VSB - VISIBILITY



USA.gov is the U.S. government's official web portal to all federal, state and local government web resources and services.